Location: Belfast
(54.5830°N, 5.9330°W)
Time: 02:17:55
(UTC+00:00)

ISS - Pass Details

Date: 26 January 2021
Orbit: 417 x 422 km, 51.6° (Epoch: 25 February)

Event Time Altitude Azimuth Distance (km) Brightness Sun altitude
Rises 17:40:00 0° 234° (SW) 2,369 1.9 -7.2°
Reaches altitude 10° 17:42:13 10° 224° (SW) 1,508 0.3 -7.5°
Maximum altitude 17:45:16 32° 159° (SSE) 753 -2.5 -7.9°
Drops below altitude 10° 17:48:21 10° 95° (E) 1,515 -1.5 -8.3°
Enters shadow 17:48:28 - 94° (E) 1,561 -1.4 -8.3°
